This is the latest recevied weather packets stored in our database for station/object EA1FBN. If no packets are shown the sender has not sent any weather packets the latest 10 day(s).
| Time | Temp. | Humidity | Pressure | Rain* | Wind** | Luminosity | Snow |
|---|---|---|---|---|---|---|---|
| 1787407247 | 26.67° C | 40% | 1013.3 hPa | 0 mm | - | - | - |
| 1787406947 | 26.67° C | 40% | 1013.3 hPa | 0 mm | - | - | - |
| 1787406347 | 27.22° C | 40% | 1013.4 hPa | 0 mm | - | - | - |
| 1787406047 | 26.67° C | 41% | 1013.4 hPa | 0 mm | - | - | - |
| 1787405749 | 26.67° C | 42% | 1013.4 hPa | 0 mm | - | - | - |
| 1787405447 | 26.67° C | 42% | 1013.4 hPa | 0 mm | - | - | - |
| 1787405147 | 26.11° C | 43% | 1013.5 hPa | 0 mm | - | - | - |
| 1787404247 | 26.67° C | 43% | 1013.6 hPa | 0 mm | - | - | - |
| 1787403949 | 26.67° C | 41% | 1013.7 hPa | 0 mm | - | - | - |
| 1787403647 | 26.11° C | 43% | 1013.8 hPa | 0 mm | - | - | - |
| 1787403347 | 26.67° C | 42% | 1013.7 hPa | 0 mm | - | - | - |
| 1787402747 | 26.67° C | 43% | 1013.8 hPa | 0.25 mm | - | - | - |
| 1787402447 | 26.11° C | 46% | 1013.7 hPa | 0.25 mm | - | - | - |
| 1787402149 | 26.67° C | 42% | 1013.8 hPa | 0.25 mm | - | - | - |
| 1787401847 | 26.67° C | 44% | 1013.8 hPa | 0.25 mm | - | - | - |
| 1787401547 | 26.11° C | 43% | 1013.8 hPa | 0.25 mm | - | - | - |
| 1787400947 | 25.56° C | 44% | 1014 hPa | 0.25 mm | - | - | - |
| 1787400647 | 25.56° C | 46% | 1014 hPa | 0.25 mm | - | - | - |
| 1787400349 | 25.56° C | 45% | 1013.9 hPa | 0.25 mm | - | - | - |
| 1787400047 | 26.11° C | 46% | 1013.9 hPa | 0.51 mm | - | - | - |
| 1787399747 | 25.56° C | 45% | 1014.1 hPa | 0.51 mm | - | - | - |
| 1787399147 | 25.56° C | 44% | 1014.2 hPa | 0.25 mm | - | - | - |
| 1787398847 | 25.56° C | 45% | 1014.3 hPa | 0.25 mm | - | - | - |
| 1787398549 | 25.56° C | 46% | 1014.3 hPa | 0.25 mm | - | - | - |
| 1787398247 | 25.56° C | 45% | 1014.4 hPa | 0.25 mm | - | - | - |
* Rain latest hour (hover to see other rain measurements)
** Current wind speed in m/s (hover to see current wind gust speed)